When you browse on this site, cookies collect data to enhance your experience and personalize the content and advertising you see.
Visit our Privacy Policy to learn more. By continuing to use the site, you agree to this use of cookies and data.
  • In Romania
  • List of Countries
  • For 7 days
  • Water Temperature
  • Satellite Maps
  • Weather Map
  • Weather Widgets
  • user-avatar
    Login

    Hourly Weather Santa Fe

    Today, 22 May, Wednesday

    Time Temperature Precipitation Wind Pressure Humidity
    00:00 +3°C° 0 mm 6 mps 577 mmHg 52%
    01:00 +3°C° 0 mm 5 mps 577 mmHg 53%
    02:00 +2°C° 0 mm 5 mps 576 mmHg 54%
    03:00 +2°C° 0 mm 5 mps 576 mmHg 55%
    04:00 +1°C° 0 mm 4 mps 576 mmHg 55%
    05:00 +1°C° 0 mm 4 mps 576 mmHg 56%
    06:00 +2°C° 0 mm 5 mps 577 mmHg 51%
    07:00 +4°C° 0 mm 6 mps 579 mmHg 47%
    08:00 +6°C° 0 mm 7 mps 580 mmHg 42%
    09:00 +8°C° 0 mm 7 mps 580 mmHg 39%
    10:00 +10°C° 0 mm 7 mps 581 mmHg 36%
    11:00 +11°C° 0 mm 8 mps 582 mmHg 33%
    12:00 +13°C° 0 mm 8 mps 582 mmHg 30%
    13:00 +15°C° 0 mm 8 mps 582 mmHg 27%
    14:00 +17°C° 0 mm 8 mps 583 mmHg 24%
    15:00 +17°C° 0 mm 9 mps 583 mmHg 24%
    16:00 +17°C° 0 mm 10 mps 583 mmHg 24%
    17:00 +17°C° 0 mm 11 mps 583 mmHg 24%
    18:00 +16°C° 0 mm 9 mps 583 mmHg 27%
    19:00 +14°C° 0 mm 7 mps 582 mmHg 30%
    20:00 +13°C° 0 mm 5 mps 582 mmHg 33%
    21:00 +12°C° 0 mm 4 mps 582 mmHg 35%
    22:00 +11°C° 0 mm 4 mps 582 mmHg 38%
    23:00 +10°C° 0 mm 3 mps 583 mmHg 40%

    Tomorrow, 23 May, Thursday

    Time Temperature Precipitation Wind Pressure Humidity
    00:00 +10°C° 0 mm 3 mps 582 mmHg 42%
    01:00 +9°C° 0 mm 3 mps 582 mmHg 44%
    02:00 +9°C° 0 mm 2 mps 582 mmHg 47%
    03:00 +8°C° 0 mm 3 mps 582 mmHg 49%
    04:00 +8°C° 0 mm 3 mps 582 mmHg 51%
    05:00 +7°C° 0 mm 3 mps 582 mmHg 53%
    06:00 +8°C° 0 mm 5 mps 583 mmHg 47%
    07:00 +10°C° 0 mm 7 mps 584 mmHg 41%
    08:00 +12°C° 0 mm 8 mps 585 mmHg 35%
    09:00 +13°C° 0 mm 9 mps 585 mmHg 33%
    10:00 +14°C° 0 mm 10 mps 586 mmHg 31%
    11:00 +16°C° 0 mm 11 mps 586 mmHg 28%
    12:00 +17°C° 0 mm 12 mps 586 mmHg 27%
    13:00 +17°C° 0 mm 12 mps 586 mmHg 26%
    14:00 +18°C° 0 mm 13 mps 586 mmHg 24%
    15:00 +17°C° 0 mm 13 mps 586 mmHg 24%
    16:00 +17°C° 0 mm 12 mps 586 mmHg 24%
    17:00 +15°C° 0 mm 12 mps 586 mmHg 24%
    18:00 +13°C° 0 mm 9 mps 586 mmHg 25%
    19:00 +11°C° 0 mm 7 mps 585 mmHg 26%
    20:00 +11°C° 0 mm 4 mps 585 mmHg 27%
    21:00 +10°C° 0 mm 3 mps 585 mmHg 29%
    22:00 +9°C° 0 mm 3 mps 585 mmHg 31%
    23:00 +8°C° 0 mm 3 mps 585 mmHg 33%

    Day after tomorrow, 24 May, Friday

    Time Temperature Precipitation Wind Pressure Humidity
    00:00 +7°C° 0 mm 3 mps 584 mmHg 34%
    01:00 +7°C° 0 mm 3 mps 584 mmHg 34%
    02:00 +5°C° 0 mm 3 mps 584 mmHg 35%
    03:00 +5°C° 0 mm 3 mps 584 mmHg 36%
    04:00 +5°C° 0 mm 2 mps 583 mmHg 36%
    05:00 +4°C° 0 mm 2 mps 583 mmHg 37%
    06:00 +7°C° 0 mm 2 mps 585 mmHg 32%
    07:00 +10°C° 0 mm 1 mps 586 mmHg 26%
    08:00 +13°C° 0 mm 1 mps 587 mmHg 21%
    09:00 +14°C° 0 mm 2 mps 587 mmHg 19%
    10:00 +16°C° 0 mm 3 mps 588 mmHg 17%
    11:00 +17°C° 0 mm 4 mps 588 mmHg 15%
    12:00 +17°C° 0 mm 5 mps 588 mmHg 14%
    13:00 +19°C° 0 mm 6 mps 588 mmHg 13%
    14:00 +20°C° 0 mm 6 mps 588 mmHg 12%
    15:00 +19°C° 0 mm 6 mps 587 mmHg 13%
    16:00 +19°C° 0 mm 6 mps 587 mmHg 15%
    17:00 +19°C° 0 mm 6 mps 587 mmHg 16%
    18:00 +17°C° 0 mm 4 mps 586 mmHg 19%
    19:00 +14°C° 0 mm 3 mps 586 mmHg 22%
    20:00 +13°C° 0 mm 1 mps 585 mmHg 24%
    21:00 +12°C° 0 mm 1 mps 585 mmHg 25%
    22:00 +12°C° 0 mm 2 mps 586 mmHg 25%
    23:00 +10°C° 0 mm 2 mps 586 mmHg 26%

    25 May, Saturday

    Time Temperature Precipitation Wind Pressure Humidity
    00:00 +10°C° 0 mm 2 mps 585 mmHg 27%
    01:00 +9°C° 0 mm 2 mps 585 mmHg 28%
    02:00 +9°C° 0 mm 2 mps 585 mmHg 30%
    03:00 +9°C° 0 mm 1 mps 585 mmHg 31%
    04:00 +9°C° 0 mm 1 mps 585 mmHg 32%
    05:00 +9°C° 0 mm 1 mps 584 mmHg 33%
    06:00 +12°C° 0 mm 2 mps 586 mmHg 28%
    07:00 +15°C° 0 mm 2 mps 588 mmHg 24%
    08:00 +18°C° 0 mm 3 mps 589 mmHg 19%
    09:00 +19°C° 0 mm 4 mps 589 mmHg 17%
    10:00 +21°C° 0 mm 6 mps 590 mmHg 15%
    11:00 +22°C° 0 mm 7 mps 590 mmHg 14%
    12:00 +23°C° 0 mm 8 mps 590 mmHg 13%
    13:00 +23°C° 0 mm 8 mps 590 mmHg 13%
    14:00 +24°C° 0 mm 9 mps 590 mmHg 12%
    15:00 +24°C° 0 mm 8 mps 589 mmHg 12%
    16:00 +23°C° 0 mm 8 mps 589 mmHg 13%
    17:00 +23°C° 0 mm 8 mps 589 mmHg 13%
    18:00 +21°C° 0 mm 7 mps 589 mmHg 15%
    19:00 +19°C° 0 mm 6 mps 588 mmHg 18%
    20:00 +16°C° 0 mm 5 mps 588 mmHg 21%
    21:00 +16°C° 0 mm 3 mps 588 mmHg 23%
    22:00 +15°C° 0 mm 2 mps 588 mmHg 25%
    23:00 +13°C° 0 mm 1 mps 587 mmHg 28%

    26 May, Sunday

    Time Temperature Precipitation Wind Pressure Humidity
    00:00 +13°C° 0 mm 1 mps 587 mmHg 28%
    01:00 +12°C° 0 mm 1 mps 587 mmHg 28%
    02:00 +12°C° 0 mm 1 mps 587 mmHg 29%
    03:00 +11°C° 0 mm 1 mps 587 mmHg 29%
    04:00 +11°C° 0 mm 1 mps 587 mmHg 29%
    05:00 +11°C° 0 mm 1 mps 587 mmHg 29%
    06:00 +14°C° 0 mm 2 mps 588 mmHg 25%
    07:00 +17°C° 0 mm 2 mps 590 mmHg 21%
    08:00 +20°C° 0 mm 3 mps 591 mmHg 17%
    09:00 +21°C° 0 mm 4 mps 591 mmHg 16%
    10:00 +23°C° 0 mm 6 mps 592 mmHg 14%
    11:00 +24°C° 0 mm 7 mps 592 mmHg 13%
    12:00 +26°C° 0 mm 8 mps 592 mmHg 12%
    13:00 +26°C° 0 mm 8 mps 592 mmHg 11%
    14:00 +27°C° 0 mm 9 mps 591 mmHg 10%
    15:00 +26°C° 0 mm 8 mps 591 mmHg 12%
    16:00 +24°C° 0 mm 8 mps 590 mmHg 13%
    17:00 +24°C° 0 mm 8 mps 590 mmHg 15%
    18:00 +22°C° 0 mm 7 mps 589 mmHg 18%
    19:00 +20°C° 0 mm 5 mps 589 mmHg 21%
    20:00 +18°C° 0 mm 4 mps 588 mmHg 24%
    21:00 +17°C° 0 mm 4 mps 588 mmHg 25%
    22:00 +17°C° 0 mm 3 mps 587 mmHg 26%
    23:00 +16°C° 0 mm 3 mps 587 mmHg 27%

    27 May, Monday

    Time Temperature Precipitation Wind Pressure Humidity
    00:00 +14°C° 0 mm 3 mps 587 mmHg 29%
    01:00 +14°C° 0 mm 2 mps 586 mmHg 31%
    02:00 +14°C° 0 mm 2 mps 585 mmHg 34%
    03:00 +13°C° 0 mm 2 mps 585 mmHg 39%
    04:00 +13°C° 0 mm 2 mps 585 mmHg 44%
    05:00 +12°C° 0 mm 2 mps 584 mmHg 50%
    06:00 +13°C° 0 mm 4 mps 585 mmHg 42%
    07:00 +15°C° 0 mm 6 mps 586 mmHg 34%
    08:00 +17°C° 0 mm 7 mps 586 mmHg 26%
    09:00 +18°C° 0 mm 9 mps 586 mmHg 22%
    10:00 +19°C° 0 mm 10 mps 586 mmHg 18%
    11:00 +19°C° 0 mm 12 mps 586 mmHg 14%
    12:00 +19°C° 0 mm 12 mps 585 mmHg 13%
    13:00 +19°C° 0 mm 12 mps 585 mmHg 13%
    14:00 +19°C° 0 mm 11 mps 584 mmHg 12%
    15:00 +18°C° 0 mm 11 mps 584 mmHg 14%
    16:00 +17°C° 0 mm 10 mps 584 mmHg 16%
    17:00 +16°C° 0 mm 9 mps 584 mmHg 18%
    18:00 +15°C° 0 mm 8 mps 583 mmHg 21%
    19:00 +12°C° 0 mm 7 mps 583 mmHg 23%
    20:00 +11°C° 0 mm 6 mps 583 mmHg 26%
    21:00 +10°C° 0 mm 6 mps 583 mmHg 29%
    22:00 +9°C° 0 mm 6 mps 583 mmHg 33%
    23:00 +9°C° 0 mm 6 mps 583 mmHg 37%
    Show more